Weather History for Miami, FL

Change the Weather History Date:

Sunday, August 10, 2014

  Actual Average Record
Temperature  
Mean Temperature 86 °F 84 °F  
Max Temperature 92 °F 91 °F 96 °F (1955)
Min Temperature 79 °F 78 °F 71 °F (1950)
Degree Days  
Heating Degree Days 0 0  
Month to date heating degree days 0 0  
Since 1 June heating degree days 0 0  
Since 1 July heating degree days 0 0  
Cooling Degree Days 21 19  
Month to date cooling degree days 190 198  
Year to date cooling degree days 2859 2678  
Since 1 June cooling degree days 1285 1322  
Growing Degree Days 36 (Base 50)    
Moisture  
Dew Point 74 °F    
Average Humidity 75    
Maximum Humidity 91    
Minimum Humidity 59    
Precipitation  
Precipitation T in 0.28 in 2.30 in (1991)
Month to date precipitation 3.70 2.59  
Year to date precipitation 43.76 34.11  
Snow  
Snow 0.00 in - - ()
Month to date snowfall 0.0  
Since 1 June snowfall 0.0  
Since 1 July snowfall 0.0  
Snow Depth 0.00 in    
Sea Level Pressure  
Sea Level Pressure 30.06 in    
Wind  
Wind Speed 5 mph (South)    
Max Wind Speed 17 mph    
Max Gust Speed 23 mph    
Visibility 10 miles    
Events Rain , Thunderstorm    
T = Trace of Precipitation, MM = Missing Value Source: NWS Daily Summary

Daily Weather History Graph

Daily Weather History Graph

Search for Another Location

Airport:

Trip Planner

Search our weather history database for the weather conditions in past years. The results will help you decide how hot, cold, wet, or windy it might be!

Date:

Astronomy

Aug. 10, 2014 Rise Set
Actual Time 6:51 AM EDT 8:00 PM EDT
Civil Twilight 6:27 AM EDT 8:25 PM EDT
Nautical Twilight 5:58 AM EDT 8:53 PM EDT
Astronomical Twilight 5:29 AM EDT 9:23 PM EDT
Moon 7:54 PM EDT (8/10) 6:37 AM EDT (8/10)
Length of Visible Light 13h 57m
Length of Day
13h 08m
Full, 100% of the Moon is Illuminated
Aug 10
Full
Aug 10
Full
Aug 17
Last Quarter
Aug 25
New
Sep 2
First Quarter

Hourly Weather History & Observations

Time (EDT) Temp. Heat Index Dew Point Humidity Pressure Visibility Wind Dir Wind Speed Gust Speed Precip Events Conditions
12:53 AM 84.9 °F 91.4 °F 73.0 °F 67% 30.07 in 10.0 mi Calm Calm - N/A   Partly Cloudy
1:53 AM 82.9 °F 88.8 °F 73.0 °F 72% 30.07 in 10.0 mi Calm Calm - N/A   Partly Cloudy
2:53 AM 82.0 °F 87.9 °F 73.9 °F 76% 30.06 in 10.0 mi South 4.6 mph - N/A   Partly Cloudy
3:53 AM 81.0 °F 86.2 °F 73.9 °F 79% 30.05 in 10.0 mi Calm Calm - N/A   Partly Cloudy
4:53 AM 82.4 °F 89.5 °F 75.2 °F 79% 30.04 in 10.0 mi SSW 3.5 mph - N/A   Scattered Clouds
5:53 AM 81.0 °F 87.9 °F 77.0 °F 88% 30.05 in 10.0 mi WSW 3.5 mph - N/A   Scattered Clouds
6:53 AM 81.0 °F 87.9 °F 77.0 °F 88% 30.06 in 10.0 mi West 4.6 mph - N/A   Partly Cloudy
7:53 AM 84.2 °F 96.1 °F 78.8 °F 84% 30.06 in 10.0 mi Calm Calm - N/A   Partly Cloudy
8:53 AM 86.0 °F 96.9 °F 77.0 °F 74% 30.08 in 10.0 mi Variable 3.5 mph - N/A   Partly Cloudy
9:53 AM 87.8 °F 97.6 °F 75.2 °F 66% 30.08 in 10.0 mi Calm Calm - N/A   Scattered Clouds
10:53 AM 87.1 °F 95.4 °F 73.9 °F 65% 30.09 in 10.0 mi Calm Calm - N/A   Scattered Clouds
11:53 AM 90.0 °F 100.2 °F 75.0 °F 61% 30.09 in 10.0 mi ESE 8.1 mph - N/A   Mostly Cloudy
12:53 PM 90.0 °F 99.0 °F 73.9 °F 59% 30.07 in 10.0 mi Variable 6.9 mph 17.3 mph N/A   Mostly Cloudy
1:53 PM 91.0 °F 101.6 °F 75.0 °F 59% 30.06 in 10.0 mi SE 9.2 mph - N/A   Scattered Clouds
2:53 PM 91.0 °F 102.9 °F 75.9 °F 61% 30.04 in 10.0 mi SE 11.5 mph - N/A   Scattered Clouds
3:53 PM 90.0 °F 100.2 °F 75.0 °F 61% 30.03 in 10.0 mi SE 9.2 mph - N/A   Scattered Clouds
4:53 PM 90.0 °F 101.3 °F 75.9 °F 63% 30.02 in 10.0 mi ESE 10.4 mph - N/A   Scattered Clouds
5:53 PM 89.1 °F 99.1 °F 75.0 °F 63% 30.01 in 10.0 mi SSE 9.2 mph - N/A   Scattered Clouds
6:53 PM 87.1 °F 94.5 °F 73.0 °F 63% 30.02 in 10.0 mi SE 9.2 mph - N/A   Scattered Clouds
7:53 PM 86.0 °F 93.0 °F 73.0 °F 65% 30.04 in 10.0 mi SE 4.6 mph - N/A Thunderstorm Thunderstorm
8:15 PM 82.9 °F 86.5 °F 69.1 °F 63% 30.05 in 10.0 mi West 8.1 mph 23.0 mph N/A   Mostly Cloudy
8:53 PM 80.1 °F 83.6 °F 71.1 °F 74% 30.03 in 10.0 mi SSE 9.2 mph - 0.00 in   Scattered Clouds
9:53 PM 81.0 °F 84.4 °F 70.0 °F 69% 30.09 in 10.0 mi West 8.1 mph - N/A   Mostly Cloudy
10:53 PM 80.1 °F 83.2 °F 70.0 °F 71% 30.08 in 10.0 mi NW 5.8 mph - N/A   Partly Cloudy
11:53 PM 80.6 °F 84.6 °F 71.6 °F 74% 30.07 in 10.0 mi West 4.6 mph - N/A   Scattered Clouds